SCP
2 1 1 0 0 0 0 0 0 0 0 0 0 0 0 0 0 0 0 0 0 0 0 0 0 0 1 1 1 1 1 1 1 1 1 1 1 1 1 1 1 1 1 1 1 1 1 1 1
1 1 0 0 0 0 0 0 0 0 0 0 0 0 0 0 0 0 0 0 0 0 0 0 0 0 1 1 1 1 1 1 1 1 1 1 1 1 1 1 1 1 1 1 1 1 1 1 1
1 1 0 0 0 0 0 0 0 0 0 0 0 0 0 0 0 0 0 0 0 0 0 0 0 0 1 1 1 1 1 1 1 1 1 1 1 1 1 1 1 1 1 1 1 1 1 1 1
1 0 0 0 0 0 0 0 0 0 0 0 0 0 0 0 0 0 0 0 0 0 0 0 0 0 1 1 1 1 1 1 1 1 0 1 1 1 2 2 2 2 1 1 1 1 1 1 1
0 0 0 0 0 0 0 0 0 0 0 0 0 0 0 0 0 0 0 0 0 0 0 0 0 0 0 0 0 1 0 0 0 0 0 1 1 1 2 2 2 2 2 1 1 1 1 1 1
0 0 0 0 0 0 0 0 0 0 0 0 0 0 0 0 0 0 0 0 0 0 0 0 0 0 0 0 0 1 0 0 1 1 1 1 1 1 2 2 2 2 2 2 1 1 1 1 1
0 0 0 0 0 0 0 0 0 0 0 0 0 0 0 0 0 0 0 0 0 0 0 0 0 0 0 0 1 1 1 1 1 1 1 1 1 1 1 2 2 2 2 1 1 1 1 1 1
0 0 0 0 0 0 0 0 0 0 0 0 0 0 0 0 1 1 0 0 0 0 0 0 0 0 0 0 1 1 1 1 1 0 0 0 0 1 1 1 2 1 1 1 1 1 1 1 1
0 0 0 0 0 0 0 0 0 0 0 0 0 0 0 0 1 1 1 0 0 0 0 0 0 0 0 0 0 0 0 0 0 0 0 0 0 0 1 1 1 1 1 1 1 1 1 1 1
0 0 0 0 0 0 0 0 0 0 0 0 0 0 0 1 1 1 1 1 0 0 0 0 0 0 0 0 0 0 0 0 0 0 0 0 0 0 0 1 1 1 1 1 1 1 1 1 1
0 0 0 0 0 0 0 0 0 0 0 0 0 1 1 1 1 1 1 1 0 0 0 0 0 0 0 0 0 0 0 0 0 0 0 0 0 0 0 0 0 0 0 0 1 1 1 1 1
0 0 0 0 0 0 0 0 0 0 0 0 1 1 1 1 1 1 1 1 1 1 0 0 0 0 0 0 0 0 0 0 0 0 0 0 0 0 0 0 0 0 0 0 0 0 0 0 0
0 0 0 0 0 0 0 0 0 1 1 1 1 1 1 1 1 0 1 1 1 1 1 1 0 0 0 0 0 0 0 0 0 0 0 0 0 0 0 0 0 0 0 0 0 0 0 0 0
0 0 0 0 0 0 0 0 1 1 1 1 1 1 1 1 1 0 1 1 1 1 1 1 1 1 0 0 0 0 0 0 0 0 0 0 0 0 0 0 0 0 0 0 0 0 0 0 0
0 0 0 0 0 0 0 0 0 1 1 1 1 1 1 1 1 0 1 1 1 0 1 1 1 1 1 0 0 0 0 0 0 0 0 0 0 0 0 0 0 0 0 0 0 0 0 0 0
0 0 0 0 0 0 0 0 0 1 1 1 0 0 1 1 1 1 0 1 0 0 0 1 1 1 1 1 0 0 0 0 0 0 0 0 0 0 0 0 0 0 0 0 0 0 0 0 0
0 0 0 0 0 0 0 0 0 1 1 0 0 0 0 1 1 1 0 0 0 0 0 0 1 1 1 1 1 0 0 0 0 0 0 0 0 0 0 0 0 0 0 0 0 0 0 0 0
0 0 0 0 0 0 0 0 0 1 1 0 0 0 0 0 1 0 0 0 0 0 0 0 0 1 1 1 1 0 0 0 0 0 0 0 0 0 0 0 0 0 0 0 0 0 0 0 0
0 0 0 0 0 0 0 0 0 0 1 0 0 0 0 0 0 0 0 0 0 0 0 0 0 0 0 1 1 1 0 0 0 0 0 0 0 0 0 0 0 0 0 0 0 0 0 0 0
0 0 0 0 0 0 0 0 0 0 0 0 1 1 1 1 1 0 0 0 0 0 0 0 0 0 0 0 1 1 1 0 0 0 0 0 0 0 0 0 0 0 0 0 0 0 0 0 0
0 0 0 0 0 0 0 0 0 0 0 0 0 0 1 1 1 1 1 1 1 1 1 0 0 0 0 1 1 1 1 0 0 0 0 0 0 0 0 0 0 0 0 0 0 0 0 0 0
0 0 0 0 0 0 0 0 0 0 0 0 0 0 0 1 1 1 1 1 1 1 1 1 0 0 0 1 1 1 1 1 0 0 0 0 0 0 0 0 0 0 0 0 0 0 0 0 0
0 0 0 0 0 0 0 0 0 0 0 0 0 0 0 0 1 1 1 1 1 1 1 1 0 0 0 1 1 1 1 1 0 0 0 0 0 0 0 0 0 0 0 0 0 0 0 0 0
0 0 0 0 0 0 0 0 0 0 0 0 0 0 0 0 1 1 1 1 1 1 1 1 1 0 0 0 1 1 1 1 1 0 0 0 0 0 0 0 0 0 0 0 0 0 0 0 0
0 0 0 0 0 0 0 0 0 0 0 0 0 0 0 0 1 1 1 1 1 1 1 1 1 0 0 0 0 1 1 1 1 0 0 0 0 0 0 0 0 0 0 0 0 0 0 0 0
0 0 0 0 0 0 0 0 0 0 0 0 0 0 0 0 0 0 0 1 1 1 1 1 1 1 0 0 0 0 1 1 1 0 0 0 0 0 0 0 0 0 0 0 0 0 0 0 0
0 0 0 0 0 0 0 0 0 0 0 0 0 0 0 0 0 0 0 0 0 1 1 2 1 1 0 0 0 0 0 1 1 1 0 0 0 0 0 0 0 0 0 0 0 0 0 0 0
0 0 0 0 0 0 0 0 0 0 0 0 0 0 0 0 0 0 0 0 0 1 1 2 1 1 0 0 0 0 0 1 1 1 0 0 0 0 0 0 0 0 0 0 0 0 0 0 0
0 0 0 0 0 0 0 0 0 0 0 0 0 0 0 0 0 0 0 0 0 1 1 1 1 1 1 0 0 0 0 0 1 1 1 0 0 0 0 0 0 0 0 0 0 0 0 0 0
0 0 0 0 0 0 0 0 0 0 0 0 0 0 0 0 0 0 0 0 0 1 1 1 1 1 1 0 0 0 0 0 1 1 1 0 0 0 0 0 0 0 0 0 0 0 0 0 0
Wind_Speed
1 3 3 4 6 6 2 2 0 1 2 2 3 5 6 4 2 1 1 2 2 2 2 3 5 6 7 7 8 8 8 8 8 8 8 8 8 8 8 7 7 9 9 9 9 10 10 9 10
1 2 4 5 6 3 1 1 1 1 4 4 4 5 5 4 2 2 1 1 2 2 2 3 6 7 7 7 7 8 8 8 8 9 9 9 9 8 8 7 7 9 9 10 10 10 10 10 10
2 3 5 5 4 3 2 1 2 3 3 2 4 4 3 2 2 2 1 2 3 3 3 3 7 7 8 8 8 8 8 8 8 9 9 9 9 9 9 10 10 10 10 10 10 10 10 11 11
3 5 5 6 3 1 2 1 3 4 3 4 4 4 3 2 2 3 4 4 4 3 3 3 7 7 7 8 8 9 9 9 9 9 9 9 9 9 10 12 12 11 11 10 10 11 11 11 11
4 5 6 4 2 1 0 1 2 3 3 3 4 4 2 3 4 6 5 4 4 3 3 3 6 6 7 8 9 9 9 9 9 9 9 9 9 10 11 12 12 12 11 11 11 11 11 11 12
5 5 5 2 1 1 1 1 3 4 3 3 4 4 1 1 4 4 4 4 3 3 3 3 5 6 7 8 9 9 9 9 9 9 9 9 10 11 11 12 12 12 12 12 12 12 12 12 12
5 5 3 3 1 0 0 1 3 3 3 2 3 4 1 0 2 4 4 4 4 4 3 3 3 4 6 7 8 9 9 9 9 9 9 9 10 10 11 11 11 12 13 13 13 13 13 13 13
4 5 3 1 2 1 1 2 2 3 2 2 3 5 4 3 4 5 5 4 4 3 3 3 3 4 4 4 6 8 9 9 9 10 10 10 10 10 10 10 10 11 12 12 13 13 13 13 14
4 6 2 3 4 2 2 2 2 2 4 3 2 2 3 7 7 6 4 3 2 2 2 2 3 3 3 3 5 6 7 8 8 8 10 8 5 5 6 8 10 11 11 12 13 13 13 13 13
5 4 3 3 4 4 2 3 3 3 3 2 3 3 6 8 7 6 5 3 2 1 1 1 2 2 3 3 3 3 3 4 4 4 4 4 4 4 6 8 11 11 11 11 13 13 12 9 6
3 3 2 1 3 4 3 2 2 5 2 3 5 6 7 7 6 6 5 4 3 2 1 1 1 1 2 2 2 2 2 2 3 4 4 4 4 4 4 4 5 6 8 6 7 8 6 5 5
3 1 2 2 2 3 3 3 3 2 2 2 5 8 7 8 7 6 5 4 3 2 1 1 1 1 1 1 1 1 1 2 2 2 3 3 2 3 3 3 3 3 3 4 4 4 5 6 6
3 1 2 3 3 4 5 4 3 1 1 5 6 7 7 7 5 4 4 4 4 3 2 1 1 2 2 1 1 1 1 1 1 1 2 2 2 3 3 2 3 3 3 3 4 4 5 5 5
2 3 2 3 3 2 4 2 2 1 3 5 6 5 5 5 5 4 4 4 4 4 4 2 2 2 2 2 1 1 1 1 1 1 1 2 2 2 3 3 3 3 3 3 4 4 4 4 4
3 4 3 1 2 1 4 2 1 2 5 5 4 4 3 4 4 4 5 5 4 4 3 3 3 2 3 2 2 1 1 1 2 1 1 2 3 3 3 3 3 2 3 4 4 4 4 4 4
3 3 1 3 1 2 4 2 4 2 5 4 3 3 3 3 3 4 4 3 3 3 3 3 3 3 3 2 1 1 1 2 2 2 1 2 3 3 3 3 2 2 3 3 4 3 4 4 4
3 1 1 3 1 2 3 3 3 3 5 4 4 3 3 3 3 3 3 3 3 4 4 3 3 3 3 2 2 2 2 2 2 2 1 2 3 3 3 2 2 3 3 3 3 3 3 3 3
2 1 1 2 1 2 2 3 3 3 4 5 4 4 3 4 5 4 3 3 3 3 4 4 3 3 3 2 2 2 2 1 1 1 2 2 3 4 3 3 3 3 3 3 3 4 3 3 2
3 2 1 3 1 2 2 4 4 3 4 4 4 4 4 6 4 2 3 2 3 2 3 4 4 3 3 2 2 2 1 1 1 1 2 2 3 4 4 3 2 2 3 3 3 3 4 2 1
3 2 1 2 0 2 1 4 3 3 5 6 6 6 6 4 2 2 3 2 3 4 4 3 4 3 3 2 2 2 2 1 1 1 1 2 3 3 4 4 3 3 3 3 3 3 2 1 1
1 3 3 2 2 2 1 4 3 2 2 2 3 3 4 6 6 4 4 4 3 4 5 4 4 4 3 3 2 3 3 2 2 1 1 0 2 2 2 3 3 3 3 3 2 2 3 2 1
3 3 3 2 1 2 1 3 5 3 3 3 3 3 4 5 5 4 4 4 5 5 4 4 4 4 3 4 4 4 3 2 2 1 1 1 1 2 2 3 3 3 2 3 3 2 2 3 1
4 1 2 1 2 1 1 1 6 2 3 5 5 4 4 4 5 5 5 5 4 4 3 4 4 4 4 4 4 4 3 2 1 1 1 1 1 1 2 3 3 3 2 3 3 2 2 2 2
2 4 4 4 4 1 2 2 5 3 4 5 3 2 3 2 3 3 3 3 2 2 3 4 4 3 4 4 4 5 5 4 3 2 2 1 0 1 1 2 2 3 2 3 3 3 3 2 2
4 5 4 4 3 4 2 2 6 5 3 3 2 2 2 1 1 1 2 3 3 3 3 4 5 4 3 4 4 4 5 5 4 4 3 2 2 1 2 2 2 2 2 3 3 3 3 3 3
2 6 5 3 3 4 2 3 5 4 3 1 1 1 1 1 1 1 3 3 4 4 4 4 5 4 4 4 4 3 4 3 3 4 3 4 3 3 3 3 3 3 3 3 3 2 3 3 3
3 2 4 5 1 1 4 4 5 2 4 4 4 3 1 0 0 1 1 2 2 2 3 4 5 4 4 4 4 3 3 3 3 3 3 3 2 2 3 3 3 3 3 3 3 2 2 2 2
3 6 4 4 2 2 4 3 4 4 4 3 2 1 1 1 0 0 0 1 1 2 2 2 3 3 3 3 4 3 3 3 3 3 3 3 3 2 3 3 4 3 3 3 3 2 2 2 2
2 2 4 3 3 4 2 5 4 3 3 2 2 1 1 1 0 0 0 0 0 1 1 2 2 2 2 3 3 3 3 3 3 3 3 3 3 3 3 3 3 3 3 3 3 3 3 3 2
2 3 5 4 3 3 3 6 3 2 2 1 1 1 2 1 0 0 0 1 1 1 1 1 1 2 2 2 2 2 2 3 3 3 4 3 3 3 3 3 3 3 3 3 4 3 3 3 3
Wind_Direction
34 80 81 61 55 53 54 351 34 86 66 49 70 79 90 81 85 128 274 86 82 71 32 51 68 73 73 71 72 74 77 77 77 75 76 77 76 76 78 82 88 88 84 81 79 77 75 73 71
105 99 60 60 76 72 355 329 81 125 140 136 73 70 73 67 65 98 57 61 95 80 50 54 72 75 76 74 71 72 74 76 77 78 79 77 74 71 69 73 94 95 87 81 80 78 75 72 70
120 67 79 70 84 139 169 222 133 87 109 96 74 56 73 84 112 139 161 123 88 64 46 57 75 75 78 76 73 73 76 77 77 78 79 77 74 71 66 72 90 93 86 81 78 77 76 73 70
88 50 56 69 77 196 182 168 133 115 81 60 92 68 53 30 140 139 122 111 91 64 48 65 77 77 79 79 77 77 75 75 77 78 79 76 74 73 70 73 82 85 82 79 77 76 76 73 71
63 73 63 59 46 6 32 150 129 100 79 69 92 93 40 1 87 111 111 106 98 71 54 64 82 81 81 81 81 80 77 74 75 78 79 77 76 75 74 75 78 80 82 80 76 74 74 73 73
59 67 81 95 41 6 0 48 99 87 94 91 99 107 71 33 101 116 110 104 95 81 60 55 75 77 77 82 83 82 78 76 76 78 79 77 75 75 74 74 76 75 77 76 73 72 71 70 72
97 89 109 135 128 28 132 76 104 109 105 123 125 111 116 126 131 117 104 93 83 73 62 44 45 60 76 82 82 79 76 74 75 77 77 77 76 75 73 72 73 73 72 71 71 69 67 68 69
113 97 90 117 146 205 141 102 92 108 116 102 111 137 178 190 139 110 95 81 75 67 57 47 43 44 46 58 75 75 74 72 72 75 75 69 65 66 67 67 70 73 72 70 70 69 68 67 67
85 78 122 188 174 189 154 106 72 76 96 80 76 153 170 138 127 113 96 72 74 74 49 49 57 52 48 50 64 64 68 63 62 65 70 63 47 45 51 60 68 71 71 71 70 68 67 64 62
79 109 198 201 176 161 139 127 137 98 84 81 74 75 113 129 137 137 138 145 151 143 102 60 69 60 53 60 52 44 50 47 48 50 53 51 47 45 51 55 66 68 68 69 68 66 61 57 50
96 145 174 130 148 137 123 107 108 124 135 190 168 149 141 142 148 155 161 165 176 180 164 128 97 74 72 62 59 48 49 50 45 49 51 54 50 44 44 45 48 52 59 57 59 58 52 50 48
94 81 143 150 135 122 125 119 98 130 204 186 156 148 149 158 168 174 175 176 167 159 186 177 135 103 101 89 69 69 68 64 57 49 56 62 59 54 49 49 48 51 55 62 59 62 56 53 49
87 74 72 106 102 110 104 103 122 119 67 108 120 133 153 168 176 183 178 173 165 171 190 194 165 143 130 107 78 81 82 87 86 73 67 80 81 76 69 61 55 57 62 70 70 67 60 55 48
127 102 72 82 93 94 104 81 94 178 108 114 132 152 167 177 178 169 171 181 182 183 190 181 168 165 137 133 128 112 108 110 102 96 94 96 96 92 88 77 64 60 64 72 79 76 69 59 53
92 80 39 33 109 133 99 42 248 191 134 140 159 173 178 194 186 187 193 191 188 185 186 181 173 153 143 151 159 137 123 115 115 119 106 100 102 101 99 91 80 72 79 83 83 75 67 63 57
63 64 16 297 138 142 124 238 264 146 142 163 181 188 192 207 205 211 204 191 180 168 173 184 169 151 150 152 146 120 113 116 111 106 103 107 112 113 103 95 89 86 86 86 87 80 75 64 59
40 77 245 300 250 134 142 229 272 148 153 181 201 209 205 215 226 221 207 188 178 175 172 167 159 158 157 147 127 109 101 106 111 110 112 115 114 116 110 104 102 101 91 83 94 79 85 82 70
220 203 251 268 288 124 157 243 265 183 183 204 210 215 211 215 226 218 204 188 178 174 166 162 160 157 140 123 103 84 74 75 89 109 123 123 118 119 114 104 101 103 96 83 88 91 75 79 78
157 160 240 258 240 144 207 250 257 211 200 219 223 223 221 228 234 208 195 180 169 166 162 165 161 162 146 130 132 127 134 114 84 91 121 125 125 125 122 117 108 106 109 114 111 104 89 72 68
149 152 260 305 326 150 239 275 269 214 209 215 215 220 219 223 221 210 195 183 184 188 180 169 170 169 167 160 153 143 135 125 117 80 80 107 130 137 140 136 134 127 114 107 111 109 103 75 50
209 186 206 236 355 28 24 325 311 279 246 242 231 223 218 209 206 211 202 200 192 196 192 186 184 176 173 152 116 88 71 57 58 56 58 103 136 136 136 143 137 139 140 146 145 133 126 129 50
239 229 197 186 89 310 57 298 298 293 294 271 255 241 235 226 207 206 203 202 205 209 197 186 181 176 171 156 150 148 153 166 189 174 169 144 128 138 136 140 142 147 146 153 167 153 140 134 136
213 159 124 125 131 7 350 202 287 328 292 274 256 245 245 230 210 208 208 205 208 202 190 184 175 173 166 163 166 157 158 172 147 116 128 129 130 142 150 152 154 160 160 167 172 158 155 150 153
131 71 59 50 73 328 251 190 285 283 264 283 264 244 244 237 223 214 208 193 191 181 179 175 170 178 167 165 167 169 171 164 147 154 168 178 184 182 179 164 169 175 173 179 184 176 171 173 161
81 84 27 1 11 262 276 194 256 278 279 265 253 238 220 191 170 190 197 196 195 187 190 182 172 178 171 168 178 186 184 176 180 186 191 192 197 208 207 185 188 186 190 190 178 172 183 183 180
151 136 155 203 232 282 328 240 260 288 318 332 124 139 106 101 155 185 199 196 200 200 195 183 178 179 173 178 190 188 185 182 196 198 196 201 207 212 202 193 197 195 190 189 176 179 191 181 187
129 153 161 138 173 277 286 292 301 348 14 29 45 59 61 103 188 224 202 182 195 201 201 189 183 183 186 189 189 189 189 189 199 201 197 206 214 210 197 195 194 198 195 189 177 185 196 178 188
128 143 105 119 165 254 291 285 271 308 328 355 13 8 321 321 33 241 193 192 198 190 183 153 166 181 180 181 192 193 197 200 198 188 199 207 210 201 187 191 192 195 196 189 178 180 186 175 194
85 104 115 125 153 163 260 277 244 242 258 260 273 282 286 319 331 263 302 81 139 130 139 155 172 164 167 185 199 196 197 202 197 198 209 209 201 197 197 196 187 190 193 189 183 189 182 186 200
166 163 145 152 210 176 186 264 292 249 257 244 276 306 332 7 0 247 91 71 54 71 137 169 183 193 196 191 189 203 205 201 202 212 215 207 202 201 201 194 191 199 196 187 184 193 188 193 204